MAX VALIER SAT (42778 NORAD) Tracking and Keplerian Element Data

This shows tracking and keplerian element data for the satellite.

Feedback or suggestion? Click here.




ElementValue
Catalog42778
NameMAX VALIER SAT
Epoch Orbit38815
Epoch Day160.16357527
Epoch Year2024
RAAN198.1513
Inclination97.0846
Eccentricity0.0006685
Argument of Perigee194.4535
Mean Anonmoly165.6548
Mean Motion15.90105431
Decay Rate0.00405203
L11 42778U 17036P 24160.16357527 .00405203 63195-4 13560-2 0 9993
L22 42778 97.0846 198.1513 0006685 194.4535 165.6548 15.90105431388157



Live tracking and technical data element details for MAX VALIER SAT (NORAD 42778). MAX VALIER SAT can be tracked NOW for your location showing map with azimuth and elevation plus other details from your city location.







IsCatalogInMostPopularTable: catalog: 42778, numindb: 941
Update: records affected: 1



GetName: 42778 MAX VALIER SAT

Hit Count: updated at: Sat, 07 Mar 2026 04:12:16 GMT